Kosmos-2528

operational
NORAD ID: 43657 Int'l Des: 2018-082 Owner: VVKOV Country: RU
LEOCIRCULAR

About Kosmos-2528

Description loading...

Live Position

Loading 3D Globe...

Upcoming Passes

Altitude History

Altitude vs Time

uPlot chart will show altitude changes over time

Two-Line Element Set

1 43657U 18082A 26061.17040084 -.00000032 00000-0 31018-4 0 9996
2 43657 67.1509 337.8618 0005634 290.0350 70.0128 13.96701089375005
Epoch: Mar 2, 2026 • Age: 24 hours

Current Status

Altitude 920.1 km
Velocity 7.39 km/s
Sub-Earth Point -50.63°S, 137.65°E
Launch Date Oct 25, 2018
Age 7.3 years
Type other

Technical Details

Classification Payload
Mass 6575.00 kg
Dry Mass 6500.00 kg
Total Mass 6575.00 kg
Length 6.30 m
Diameter 2.70 m
Span 6.30 m
Shape Cyl + 2 Pan
Manufacturer TSSKBP/ARSLO
Bus Type Yantar'-Lotos
Phase Status In Orbit
Owner/State VVKOV/RU

Large Constellations

Loading constellations...